Location: Presov
(49.0000°N, 21.2500°E)
Time: 23:21:14
(UTC+02:00)

Transit 2A Rocket - Pass Details

Date: 20 April 2021
Orbit: 594 x 908 km, 66.7° (Epoch: 05 May)

Event Time Altitude Azimuth Distance (km) Brightness Sun altitude
Rises 23:08:16 0° 328° (NNW) 2,860 9.3 -26.3°
Reaches altitude 10° 23:10:38 10° 337° (NNW) 1,973 8.2 -26.5°
Maximum altitude 23:14:42 35° 44° (NE) 1,028 5.8 -26.7°
Enters shadow 23:14:51 35° 49° (NE) 1,032 5.8 -26.7°
Drops below altitude 10° 23:18:59 10° 111° (ESE) 2,084 - -27.0°
Sets 23:21:33 0° 120° (ESE) 3,045 - -27.1°
